Time,TemperatureF,DewpointF,PressureIn,WindDirection,WindDirectionDegrees,WindSpeedMPH,WindSpeedGustMPH,Humidity,HourlyPrecipIn,Conditions,Clouds,dailyrainin,SoftwareType,DateUTC
2013-02-14 00:02:00,34.9,17.7,30.15,SW,232,0.0,2.0,49,0.00,,,0.00,Wunderground v.1.13,2013-02-14 08:02:00,
2013-02-14 00:08:00,34.9,18.1,30.15,SW,232,0.0,1.0,50,0.00,,,0.00,Wunderground v.1.13,2013-02-14 08:08:00,
2013-02-14 00:14:00,34.7,17.9,30.15,SW,232,0.0,0.0,50,0.00,,,0.00,Wunderground v.1.13,2013-02-14 08:14:00,
2013-02-14 00:20:00,34.6,18.3,30.15,SW,232,0.0,0.0,51,0.00,,,0.00,Wunderground v.1.13,2013-02-14 08:20:00,
2013-02-14 00:25:00,34.7,18.4,30.15,SW,232,0.0,0.0,51,0.00,,,0.00,Wunderground v.1.13,2013-02-14 08:25:00,
2013-02-14 00:31:00,34.7,18.9,30.15,SW,232,0.0,0.0,52,0.00,,,0.00,Wunderground v.1.13,2013-02-14 08:31:00,
2013-02-14 00:37:00,34.6,18.3,30.15,SW,232,0.0,1.0,51,0.00,,,0.00,Wunderground v.1.13,2013-02-14 08:37:00,
2013-02-14 00:43:00,34.3,17.6,30.15,SW,232,0.0,0.0,50,0.00,,,0.00,Wunderground v.1.13,2013-02-14 08:43:00,
2013-02-14 00:49:00,34.0,18.6,30.14,SW,233,0.0,0.0,53,0.00,,,0.00,Wunderground v.1.13,2013-02-14 08:49:00,
2013-02-14 00:55:00,33.8,19.3,30.14,SW,233,0.0,0.0,55,0.00,,,0.00,Wunderground v.1.13,2013-02-14 08:55:00,
2013-02-14 01:01:00,34.0,19.9,30.15,SW,233,0.0,2.0,56,0.00,,,0.00,Wunderground v.1.13,2013-02-14 09:01:00,
2013-02-14 01:06:00,34.4,19.5,30.15,SW,233,0.0,0.0,54,0.00,,,0.00,Wunderground v.1.13,2013-02-14 09:06:00,
2013-02-14 01:11:00,34.4,19.5,30.15,SW,233,0.0,0.0,54,0.00,,,0.00,Wunderground v.1.13,2013-02-14 09:11:00,
2013-02-14 01:17:00,34.3,19.4,30.22,SW,233,0.0,0.0,54,0.00,,,0.00,Wunderground v.1.13,2013-02-14 09:17:00,
2013-02-14 01:22:00,34.1,19.2,30.22,SW,233,0.0,0.0,54,0.00,,,0.00,Wunderground v.1.13,2013-02-14 09:22:00,
2013-02-14 01:28:00,33.7,17.0,30.22,SW,233,0.0,0.0,50,0.00,,,0.00,Wunderground v.1.13,2013-02-14 09:28:00,
2013-02-14 01:34:00,33.1,15.5,30.22,SW,233,0.0,0.0,48,0.00,,,0.00,Wunderground v.1.13,2013-02-14 09:34:00,
2013-02-14 01:40:00,32.2,13.7,30.22,SW,233,0.0,0.0,46,0.00,,,0.00,Wunderground v.1.13,2013-02-14 09:40:00,
2013-02-14 01:46:00,31.3,12.9,30.23,SW,233,0.0,0.0,46,0.00,,,0.00,Wunderground v.1.13,2013-02-14 09:46:00,
2013-02-14 01:52:00,30.6,12.7,30.23,SW,232,0.0,0.0,47,0.00,,,0.00,Wunderground v.1.13,2013-02-14 09:52:00,
2013-02-14 01:58:00,30.1,12.7,30.23,SW,232,0.0,0.0,48,0.00,,,0.00,Wunderground v.1.13,2013-02-14 09:58:00,
2013-02-14 02:04:00,30.0,13.1,30.24,SW,232,0.0,1.0,49,0.00,,,0.00,Wunderground v.1.13,2013-02-14 10:04:00,
2013-02-14 02:09:00,29.8,12.9,30.24,SW,232,0.0,0.0,49,0.00,,,0.00,Wunderground v.1.13,2013-02-14 10:09:00,
2013-02-14 02:15:00,29.7,13.3,30.24,SW,232,0.0,0.0,50,0.00,,,0.00,Wunderground v.1.13,2013-02-14 10:15:00,
2013-02-14 02:21:00,29.8,13.4,30.24,SW,232,0.0,0.0,50,0.00,,,0.00,Wunderground v.1.13,2013-02-14 10:21:00,
2013-02-14 02:27:00,30.0,14.0,30.24,SW,232,0.0,0.0,51,0.00,,,0.00,Wunderground v.1.13,2013-02-14 10:27:00,
2013-02-14 02:33:00,30.0,14.0,30.23,SW,232,0.0,0.0,51,0.00,,,0.00,Wunderground v.1.13,2013-02-14 10:33:00,
2013-02-14 02:39:00,30.1,13.7,30.23,SW,232,0.0,0.0,50,0.00,,,0.00,Wunderground v.1.13,2013-02-14 10:39:00,
2013-02-14 02:45:00,30.1,14.1,30.23,SW,232,0.0,0.0,51,0.00,,,0.00,Wunderground v.1.13,2013-02-14 10:45:00,
2013-02-14 02:51:00,30.1,14.1,30.23,SW,232,0.0,0.0,51,0.00,,,0.00,Wunderground v.1.13,2013-02-14 10:51:00,
2013-02-14 02:56:00,30.0,14.0,30.23,SW,232,0.0,0.0,51,0.00,,,0.00,Wunderground v.1.13,2013-02-14 10:56:00,
2013-02-14 03:02:00,29.7,14.6,30.22,SW,232,0.0,0.0,53,0.00,,,0.00,Wunderground v.1.13,2013-02-14 11:02:00,
2013-02-14 03:08:00,30.0,15.3,30.22,SW,232,0.0,1.0,54,0.00,,,0.00,Wunderground v.1.13,2013-02-14 11:08:00,
2013-02-14 03:14:00,30.1,15.4,30.22,SW,232,0.0,0.0,54,0.00,,,0.00,Wunderground v.1.13,2013-02-14 11:14:00,
2013-02-14 03:19:00,30.1,15.4,30.22,SW,232,0.0,0.0,54,0.00,,,0.00,Wunderground v.1.13,2013-02-14 11:19:00,
2013-02-14 03:25:00,30.1,15.4,30.22,SW,232,0.0,0.0,54,0.00,,,0.00,Wunderground v.1.13,2013-02-14 11:25:00,
2013-02-14 03:31:00,29.8,14.7,30.22,SW,232,0.0,0.0,53,0.00,,,0.00,Wunderground v.1.13,2013-02-14 11:31:00,
2013-02-14 03:37:00,29.7,14.6,30.22,SW,230,0.0,0.0,53,0.00,,,0.00,Wunderground v.1.13,2013-02-14 11:37:00,
2013-02-14 03:43:00,29.4,13.9,30.22,SW,226,0.0,0.0,52,0.00,,,0.00,Wunderground v.1.13,2013-02-14 11:43:00,
2013-02-14 03:49:00,29.1,14.1,30.23,SW,224,0.0,0.0,53,0.00,,,0.00,Wunderground v.1.13,2013-02-14 11:49:00,
2013-02-14 03:55:00,29.0,14.0,30.23,SW,223,0.0,0.0,53,0.00,,,0.00,Wunderground v.1.13,2013-02-14 11:55:00,
2013-02-14 04:01:00,28.8,13.8,30.24,South,186,0.0,0.0,53,0.00,,,0.00,Wunderground v.1.13,2013-02-14 12:01:00,
2013-02-14 04:06:00,28.7,13.7,30.24,SW,232,0.0,0.0,53,0.00,,,0.00,Wunderground v.1.13,2013-02-14 12:06:00,
2013-02-14 04:12:00,28.7,13.7,30.24,SW,232,0.0,0.0,53,0.00,,,0.00,Wunderground v.1.13,2013-02-14 12:12:00,
2013-02-14 04:18:00,28.5,13.9,30.24,SW,232,0.0,0.0,54,0.00,,,0.00,Wunderground v.1.13,2013-02-14 12:18:00,
2013-02-14 04:24:00,28.4,14.3,30.24,SW,232,0.0,0.0,55,0.00,,,0.00,Wunderground v.1.13,2013-02-14 12:24:00,
2013-02-14 04:29:00,28.4,14.7,30.25,SW,232,0.0,1.0,56,0.00,,,0.00,Wunderground v.1.13,2013-02-14 12:29:00,
2013-02-14 04:35:00,28.2,14.5,30.25,SW,232,0.0,0.0,56,0.00,,,0.00,Wunderground v.1.13,2013-02-14 12:35:00,
2013-02-14 04:41:00,28.2,14.9,30.25,SW,232,0.0,0.0,57,0.00,,,0.00,Wunderground v.1.13,2013-02-14 12:41:00,
2013-02-14 04:47:00,28.2,14.9,30.25,SW,232,0.0,0.0,57,0.00,,,0.00,Wunderground v.1.13,2013-02-14 12:47:00,
2013-02-14 04:53:00,28.1,15.2,30.25,SW,232,0.0,0.0,58,0.00,,,0.00,Wunderground v.1.13,2013-02-14 12:53:00,
2013-02-14 04:59:00,28.1,15.2,30.25,SW,232,0.0,0.0,58,0.00,,,0.00,Wunderground v.1.13,2013-02-14 12:59:00,
2013-02-14 05:05:00,28.1,15.6,30.25,SW,232,0.0,0.0,59,0.00,,,0.00,Wunderground v.1.13,2013-02-14 13:05:00,
2013-02-14 05:11:00,28.4,15.5,30.25,SW,232,0.0,0.0,58,0.00,,,0.00,Wunderground v.1.13,2013-02-14 13:11:00,
2013-02-14 05:17:00,28.4,15.5,30.17,SW,232,0.0,0.0,58,0.00,,,0.00,Wunderground v.1.13,2013-02-14 13:17:00,
2013-02-14 05:23:00,28.5,15.2,30.17,SW,232,0.0,0.0,57,0.00,,,0.00,Wunderground v.1.13,2013-02-14 13:23:00,
2013-02-14 05:29:00,28.5,15.2,30.18,SW,232,0.0,0.0,57,0.00,,,0.00,Wunderground v.1.13,2013-02-14 13:29:00,
2013-02-14 05:35:00,28.5,15.6,30.18,SW,232,0.0,0.0,58,0.00,,,0.00,Wunderground v.1.13,2013-02-14 13:35:00,
2013-02-14 05:41:00,28.7,15.8,30.18,SW,232,0.0,0.0,58,0.00,,,0.00,Wunderground v.1.13,2013-02-14 13:41:00,
2013-02-14 05:47:00,28.7,15.8,30.17,SW,232,0.0,0.0,58,0.00,,,0.00,Wunderground v.1.13,2013-02-14 13:47:00,
2013-02-14 05:53:00,28.8,15.9,30.17,SW,232,0.0,0.0,58,0.00,,,0.00,Wunderground v.1.13,2013-02-14 13:53:00,
2013-02-14 05:59:00,28.7,15.8,30.17,SW,232,0.0,0.0,58,0.00,,,0.00,Wunderground v.1.13,2013-02-14 13:59:00,
2013-02-14 06:05:00,28.4,14.3,30.17,SW,232,0.0,0.0,55,0.00,,,0.00,Wunderground v.1.13,2013-02-14 14:05:00,
2013-02-14 06:11:00,27.8,12.9,30.17,SW,230,0.0,0.0,53,0.00,,,0.00,Wunderground v.1.13,2013-02-14 14:11:00,
2013-02-14 06:17:00,27.2,12.3,30.21,SW,233,0.0,0.0,53,0.00,,,0.00,Wunderground v.1.13,2013-02-14 14:17:00,
2013-02-14 06:23:00,26.6,11.7,30.21,SW,233,0.0,1.0,53,0.00,,,0.00,Wunderground v.1.13,2013-02-14 14:23:00,
2013-02-14 06:29:00,26.1,11.7,30.21,SW,233,0.0,0.0,54,0.00,,,0.00,Wunderground v.1.13,2013-02-14 14:29:00,
2013-02-14 06:35:00,26.0,12.4,30.21,SW,233,0.0,0.0,56,0.00,,,0.00,Wunderground v.1.13,2013-02-14 14:35:00,
2013-02-14 06:41:00,26.0,12.8,30.21,SW,233,0.0,0.0,57,0.00,,,0.00,Wunderground v.1.13,2013-02-14 14:41:00,
2013-02-14 06:47:00,26.1,12.9,30.21,SW,233,0.0,0.0,57,0.00,,,0.00,Wunderground v.1.13,2013-02-14 14:47:00,
2013-02-14 06:53:00,26.1,13.3,30.21,SW,233,0.0,0.0,58,0.00,,,0.00,Wunderground v.1.13,2013-02-14 14:53:00,
2013-02-14 06:59:00,26.6,13.8,30.21,SW,233,0.0,0.0,58,0.00,,,0.00,Wunderground v.1.13,2013-02-14 14:59:00,
2013-02-14 07:04:00,26.9,14.1,30.21,SW,233,0.0,1.0,58,0.00,,,0.00,Wunderground v.1.13,2013-02-14 15:04:00,
2013-02-14 07:10:00,27.3,14.8,30.21,SW,233,0.0,0.0,59,0.00,,,0.00,Wunderground v.1.13,2013-02-14 15:10:00,
2013-02-14 07:15:00,27.8,14.9,30.22,SW,233,0.0,0.0,58,0.00,,,0.00,Wunderground v.1.13,2013-02-14 15:15:00,
2013-02-14 07:21:00,28.5,15.2,30.22,SW,233,0.0,1.0,57,0.00,,,0.00,Wunderground v.1.13,2013-02-14 15:21:00,
2013-02-14 07:27:00,29.7,16.3,30.22,SW,233,0.0,0.0,57,0.00,,,0.00,Wunderground v.1.13,2013-02-14 15:27:00,
2013-02-14 07:33:00,30.4,17.0,30.21,SW,232,0.0,0.0,57,0.00,,,0.00,Wunderground v.1.13,2013-02-14 15:33:00,
2013-02-14 07:39:00,31.5,18.0,30.21,SW,232,0.0,0.0,57,0.00,,,0.00,Wunderground v.1.13,2013-02-14 15:39:00,
2013-02-14 07:45:00,32.5,18.1,30.22,SW,232,0.0,0.0,55,0.00,,,0.00,Wunderground v.1.13,2013-02-14 15:45:00,
2013-02-14 07:50:00,33.5,18.6,30.22,SW,232,0.0,0.0,54,0.00,,,0.00,Wunderground v.1.13,2013-02-14 15:50:00,
2013-02-14 07:56:00,34.7,18.9,30.22,SW,232,0.0,0.0,52,0.00,,,0.00,Wunderground v.1.13,2013-02-14 15:56:00,
2013-02-14 08:02:00,35.6,19.2,30.22,SW,230,0.0,0.0,51,0.00,,,0.00,Wunderground v.1.13,2013-02-14 16:02:00,
2013-02-14 08:08:00,36.3,19.9,30.22,SW,227,0.0,0.0,51,0.00,,,0.00,Wunderground v.1.13,2013-02-14 16:08:00,
2013-02-14 08:13:00,37.3,19.9,30.22,SW,226,0.0,0.0,49,0.00,,,0.00,Wunderground v.1.13,2013-02-14 16:13:00,
2013-02-14 08:19:00,38.6,19.6,30.24,SW,224,0.0,0.0,46,0.00,,,0.00,Wunderground v.1.13,2013-02-14 16:19:00,
2013-02-14 08:25:00,39.6,19.5,30.24,SW,224,0.0,0.0,44,0.00,,,0.00,Wunderground v.1.13,2013-02-14 16:25:00,
2013-02-14 08:31:00,40.6,19.8,30.24,SW,224,0.0,0.0,43,0.00,,,0.00,Wunderground v.1.13,2013-02-14 16:31:00,
2013-02-14 08:37:00,41.3,19.3,30.24,SW,224,0.0,1.0,41,0.00,,,0.00,Wunderground v.1.13,2013-02-14 16:37:00,
2013-02-14 08:43:00,41.6,20.2,30.24,SW,224,0.0,1.0,42,0.00,,,0.00,Wunderground v.1.13,2013-02-14 16:43:00,
2013-02-14 08:49:00,42.2,20.2,30.24,SW,227,0.0,0.0,41,0.00,,,0.00,Wunderground v.1.13,2013-02-14 16:49:00,
2013-02-14 08:55:00,43.2,19.9,30.24,SW,227,0.0,0.0,39,0.00,,,0.00,Wunderground v.1.13,2013-02-14 16:55:00,
2013-02-14 09:01:00,43.8,20.4,30.23,SW,227,0.0,2.0,39,0.00,,,0.00,Wunderground v.1.13,2013-02-14 17:01:00,
2013-02-14 09:06:00,44.3,20.9,30.23,SW,227,1.0,1.0,39,0.00,,,0.00,Wunderground v.1.13,2013-02-14 17:06:00,
2013-02-14 09:12:00,45.4,21.2,30.23,ESE,110,0.0,2.0,38,0.00,,,0.00,Wunderground v.1.13,2013-02-14 17:12:00,
2013-02-14 09:18:00,46.2,22.0,30.22,ESE,110,0.0,0.0,38,0.00,,,0.00,Wunderground v.1.13,2013-02-14 17:18:00,
2013-02-14 09:24:00,47.4,21.7,30.22,ESE,110,0.0,0.0,36,0.00,,,0.00,Wunderground v.1.13,2013-02-14 17:24:00,
2013-02-14 09:30:00,48.3,21.9,30.22,ESE,109,1.0,2.0,35,0.00,,,0.00,Wunderground v.1.13,2013-02-14 17:30:00,
2013-02-14 09:36:00,48.6,22.1,30.22,ESE,103,1.0,1.0,35,0.00,,,0.00,Wunderground v.1.13,2013-02-14 17:36:00,
2013-02-14 09:42:00,49.4,22.2,30.22,East,100,1.0,1.0,34,0.00,,,0.00,Wunderground v.1.13,2013-02-14 17:42:00,
2013-02-14 09:48:00,50.2,21.4,30.22,ESE,109,1.0,3.0,32,0.00,,,0.00,Wunderground v.1.13,2013-02-14 17:48:00,
2013-02-14 09:54:00,50.8,21.2,30.22,ESE,117,2.0,3.0,31,0.00,,,0.00,Wunderground v.1.13,2013-02-14 17:54:00,
2013-02-14 09:59:00,51.3,20.9,30.22,East,92,2.0,5.0,30,0.00,,,0.00,Wunderground v.1.13,2013-02-14 17:59:00,
2013-02-14 10:06:00,51.6,21.1,30.22,SE,136,2.0,2.0,30,0.00,,,0.00,Wunderground v.1.13,2013-02-14 18:06:00,
2013-02-14 10:11:00,52.2,20.9,30.22,ESE,102,2.0,2.0,29,0.00,,,0.00,Wunderground v.1.13,2013-02-14 18:11:00,
2013-02-14 10:16:00,52.8,20.5,30.22,ESE,110,1.0,2.0,28,0.00,,,0.00,Wunderground v.1.13,2013-02-14 18:16:00,
2013-02-14 10:21:00,53.5,21.2,30.22,ESE,110,1.0,1.0,28,0.00,,,0.00,Wunderground v.1.13,2013-02-14 18:21:00,
2013-02-14 10:27:00,54.7,21.3,30.22,ESE,110,0.0,1.0,27,0.00,,,0.00,Wunderground v.1.13,2013-02-14 18:27:00,
2013-02-14 10:32:00,55.7,22.2,30.21,ESE,112,0.0,0.0,27,0.00,,,0.00,Wunderground v.1.13,2013-02-14 18:32:00,
2013-02-14 10:38:00,56.3,21.8,30.21,ESE,106,1.0,3.0,26,0.00,,,0.00,Wunderground v.1.13,2013-02-14 18:38:00,
2013-02-14 10:44:00,57.2,21.6,30.20,SE,127,1.0,1.0,25,0.00,,,0.00,Wunderground v.1.13,2013-02-14 18:44:00,
2013-02-14 10:50:00,58.3,21.6,30.20,East,79,1.0,1.0,24,0.00,,,0.00,Wunderground v.1.13,2013-02-14 18:50:00,
2013-02-14 10:56:00,59.2,21.4,30.20,ESE,102,1.0,2.0,23,0.00,,,0.00,Wunderground v.1.13,2013-02-14 18:56:00,
2013-02-14 11:02:00,59.9,20.9,30.21,SE,130,1.0,6.0,22,0.00,,,0.00,Wunderground v.1.13,2013-02-14 19:02:00,
2013-02-14 11:07:00,60.5,20.3,30.21,SSE,164,1.0,3.0,21,0.00,,,0.00,Wunderground v.1.13,2013-02-14 19:07:00,
2013-02-14 11:13:00,61.0,20.7,30.21,NNE,18,2.0,2.0,21,0.00,,,0.00,Wunderground v.1.13,2013-02-14 19:13:00,
2013-02-14 11:19:00,61.6,20.1,30.19,NNE,25,1.0,3.0,20,0.00,,,0.00,Wunderground v.1.13,2013-02-14 19:19:00,
2013-02-14 11:25:00,62.3,19.5,30.19,East,85,1.0,4.0,19,0.00,,,0.00,Wunderground v.1.13,2013-02-14 19:25:00,
2013-02-14 11:31:00,63.2,20.2,30.18,NE,38,1.0,1.0,19,0.00,,,0.00,Wunderground v.1.13,2013-02-14 19:31:00,
2013-02-14 11:37:00,64.0,19.6,30.18,ESE,110,1.0,3.0,18,0.00,,,0.00,Wunderground v.1.13,2013-02-14 19:37:00,
2013-02-14 11:43:00,64.5,20.0,30.18,NNE,28,2.0,5.0,18,0.00,,,0.00,Wunderground v.1.13,2013-02-14 19:43:00,
2013-02-14 11:49:00,64.8,20.2,30.17,North,10,2.0,6.0,18,0.00,,,0.00,Wunderground v.1.13,2013-02-14 19:49:00,
2013-02-14 11:55:00,65.3,20.7,30.17,ESE,107,3.0,6.0,18,0.00,,,0.00,Wunderground v.1.13,2013-02-14 19:55:00,
2013-02-14 12:01:00,65.5,20.8,30.16,East,79,3.0,4.0,18,0.00,,,0.00,Wunderground v.1.13,2013-02-14 20:01:00,
2013-02-14 12:06:00,65.8,19.7,30.16,NNE,24,2.0,4.0,17,0.00,,,0.00,Wunderground v.1.13,2013-02-14 20:06:00,
2013-02-14 12:12:00,66.3,20.1,30.16,ENE,78,2.0,2.0,17,0.00,,,0.00,Wunderground v.1.13,2013-02-14 20:12:00,
2013-02-14 12:18:00,66.4,21.6,30.15,ESE,107,2.0,2.0,18,0.00,,,0.00,Wunderground v.1.13,2013-02-14 20:18:00,
2013-02-14 12:24:00,66.0,21.2,30.15,NNE,13,3.0,6.0,18,0.00,,,0.00,Wunderground v.1.13,2013-02-14 20:24:00,
2013-02-14 12:30:00,66.3,21.5,30.15,ESE,104,2.0,2.0,18,0.00,,,0.00,Wunderground v.1.13,2013-02-14 20:30:00,
2013-02-14 12:35:00,66.8,20.5,30.15,ESE,110,2.0,2.0,17,0.00,,,0.00,Wunderground v.1.13,2013-02-14 20:35:00,
2013-02-14 12:41:00,66.8,20.5,30.15,NNE,28,4.0,8.0,17,0.00,,,0.00,Wunderground v.1.13,2013-02-14 20:41:00,
2013-02-14 12:47:00,66.3,21.5,30.13,NNE,14,6.0,8.0,18,0.00,,,0.00,Wunderground v.1.13,2013-02-14 20:47:00,
2013-02-14 12:53:00,66.1,21.3,30.13,ENE,76,6.0,8.0,18,0.00,,,0.00,Wunderground v.1.13,2013-02-14 20:53:00,
2013-02-14 12:58:00,66.8,20.5,30.13,NE,45,4.0,7.0,17,0.00,,,0.00,Wunderground v.1.13,2013-02-14 20:58:00,
2013-02-14 13:04:00,66.9,20.6,30.13,North,0,5.0,13.0,17,0.00,,,0.00,Wunderground v.1.13,2013-02-14 21:04:00,
2013-02-14 13:10:00,66.9,20.6,30.13,NE,42,5.0,5.0,17,0.00,,,0.00,Wunderground v.1.13,2013-02-14 21:10:00,
2013-02-14 13:16:00,67.1,20.8,30.13,ENE,61,5.0,6.0,17,0.00,,,0.00,Wunderground v.1.13,2013-02-14 21:16:00,
2013-02-14 13:22:00,67.3,20.9,30.13,NE,45,6.0,10.0,17,0.00,,,0.00,Wunderground v.1.13,2013-02-14 21:22:00,
2013-02-14 13:28:00,67.1,20.8,30.13,NNE,23,6.0,6.0,17,0.00,,,0.00,Wunderground v.1.13,2013-02-14 21:28:00,
2013-02-14 13:34:00,66.6,20.4,30.12,NNE,23,5.0,8.0,17,0.00,,,0.00,Wunderground v.1.13,2013-02-14 21:34:00,
2013-02-14 13:39:00,66.4,20.2,30.12,NNE,31,7.0,8.0,17,0.00,,,0.00,Wunderground v.1.13,2013-02-14 21:39:00,
2013-02-14 13:45:00,66.4,20.2,30.11,NNE,31,3.0,3.0,17,0.00,,,0.00,Wunderground v.1.13,2013-02-14 21:45:00,
2013-02-14 13:51:00,-999.9,-99.9,30.11,North,32767,-999.0,0.0,255,-99.99,,,0.00,Wunderground v.1.13,2013-02-14 21:51:00,
2013-02-14 13:57:00,-999.9,-99.9,30.11,North,32767,-999.0,0.0,255,-99.99,,,0.00,Wunderground v.1.13,2013-02-14 21:57:00,
2013-02-14 14:03:00,-999.9,-99.9,30.18,North,32767,-999.0,13.0,255,-99.99,,,0.00,Wunderground v.1.13,2013-02-14 22:03:00,
2013-02-14 14:08:00,-999.9,-99.9,30.18,North,32767,-999.0,0.0,255,-99.99,,,0.00,Wunderground v.1.13,2013-02-14 22:08:00,
2013-02-14 14:14:00,-999.9,-99.9,30.18,North,32767,-999.0,0.0,255,-99.99,,,0.00,Wunderground v.1.13,2013-02-14 22:14:00,
2013-02-14 14:20:00,-999.9,-99.9,30.18,North,32767,-999.0,0.0,255,-99.99,,,0.00,Wunderground v.1.13,2013-02-14 22:20:00,
2013-02-14 14:26:00,-999.9,-99.9,30.18,North,32767,-999.0,0.0,255,-99.99,,,0.00,Wunderground v.1.13,2013-02-14 22:26:00,
2013-02-14 14:32:00,-999.9,-99.9,30.18,North,32767,-999.0,0.0,255,-99.99,,,0.00,Wunderground v.1.13,2013-02-14 22:32:00,
2013-02-14 14:38:00,-999.9,-99.9,30.18,North,32767,-999.0,0.0,255,-99.99,,,0.00,Wunderground v.1.13,2013-02-14 22:38:00,
2013-02-14 14:44:00,-999.9,-99.9,30.17,North,32767,-999.0,0.0,255,-99.99,,,0.00,Wunderground v.1.13,2013-02-14 22:44:00,
2013-02-14 14:50:00,-999.9,-99.9,30.17,North,32767,-999.0,0.0,255,-99.99,,,0.00,Wunderground v.1.13,2013-02-14 22:50:00,
2013-02-14 14:56:00,-999.9,-99.9,30.17,North,32767,-999.0,0.0,255,-99.99,,,0.00,Wunderground v.1.13,2013-02-14 22:56:00,
2013-02-14 15:02:00,-999.9,-99.9,30.17,North,32767,-999.0,0.0,255,-99.99,,,0.00,Wunderground v.1.13,2013-02-14 23:02:00,
2013-02-14 15:07:00,-999.9,-99.9,30.17,North,32767,-999.0,0.0,255,-99.99,,,0.00,Wunderground v.1.13,2013-02-14 23:07:00,
2013-02-14 15:13:00,-999.9,-99.9,30.17,North,32767,-999.0,0.0,255,-99.99,,,0.00,Wunderground v.1.13,2013-02-14 23:13:00,
2013-02-14 15:19:00,-999.9,-99.9,30.18,North,32767,-999.0,0.0,255,-99.99,,,0.00,Wunderground v.1.13,2013-02-14 23:19:00,
2013-02-14 15:25:00,-999.9,-99.9,30.18,North,32767,-999.0,0.0,255,-99.99,,,0.00,Wunderground v.1.13,2013-02-14 23:25:00,
2013-02-14 15:31:00,-999.9,-99.9,30.18,North,32767,-999.0,0.0,255,-99.99,,,0.00,Wunderground v.1.13,2013-02-14 23:31:00,
2013-02-14 15:37:00,-999.9,-99.9,30.18,North,32767,-999.0,0.0,255,-99.99,,,0.00,Wunderground v.1.13,2013-02-14 23:37:00,
2013-02-14 15:43:00,-999.9,-99.9,30.18,North,32767,-999.0,0.0,255,-99.99,,,0.00,Wunderground v.1.13,2013-02-14 23:43:00,
2013-02-14 15:49:00,-999.9,-99.9,30.18,North,32767,-999.0,0.0,255,-99.99,,,0.00,Wunderground v.1.13,2013-02-14 23:49:00,
2013-02-14 15:55:00,-999.9,-99.9,30.18,North,32767,-999.0,0.0,255,-99.99,,,0.00,Wunderground v.1.13,2013-02-14 23:55:00,
2013-02-14 16:01:00,-999.9,-99.9,30.18,North,32767,-999.0,0.0,255,-99.99,,,0.00,Wunderground v.1.13,2013-02-15 00:01:00,
2013-02-14 16:06:00,-999.9,-99.9,30.18,North,32767,-999.0,0.0,255,-99.99,,,0.00,Wunderground v.1.13,2013-02-15 00:06:00,
2013-02-14 16:12:00,-999.9,-99.9,30.18,North,32767,-999.0,0.0,255,-99.99,,,0.00,Wunderground v.1.13,2013-02-15 00:12:00,
2013-02-14 16:18:00,-999.9,-99.9,30.19,North,32767,-999.0,0.0,255,-99.99,,,0.00,Wunderground v.1.13,2013-02-15 00:18:00,
2013-02-14 16:24:00,-999.9,-99.9,30.19,North,32767,-999.0,0.0,255,-99.99,,,0.00,Wunderground v.1.13,2013-02-15 00:24:00,
2013-02-14 16:30:00,-999.9,-99.9,30.19,North,32767,-999.0,0.0,255,-99.99,,,0.00,Wunderground v.1.13,2013-02-15 00:30:00,
2013-02-14 16:36:00,-999.9,-99.9,30.19,North,32767,-999.0,0.0,255,-99.99,,,0.00,Wunderground v.1.13,2013-02-15 00:36:00,
2013-02-14 16:42:00,-999.9,-99.9,30.19,North,32767,-999.0,0.0,255,-99.99,,,0.00,Wunderground v.1.13,2013-02-15 00:42:00,
2013-02-14 16:47:00,-999.9,-99.9,30.18,North,32767,-999.0,0.0,255,-99.99,,,0.00,Wunderground v.1.13,2013-02-15 00:47:00,
2013-02-14 16:53:00,-999.9,-99.9,30.18,North,32767,-999.0,0.0,255,-99.99,,,0.00,Wunderground v.1.13,2013-02-15 00:53:00,
2013-02-14 16:59:00,-999.9,-99.9,30.18,North,32767,-999.0,0.0,255,-99.99,,,0.00,Wunderground v.1.13,2013-02-15 00:59:00,
2013-02-14 17:06:00,-999.9,-99.9,30.18,North,32767,-999.0,0.0,255,-99.99,,,0.00,Wunderground v.1.13,2013-02-15 01:06:00,
2013-02-14 17:11:00,66.4,-99.9,30.18,ENE,66,3.0,3.0,255,0.00,,,0.00,Wunderground v.1.13,2013-02-15 01:11:00,
2013-02-14 17:17:00,66.0,17.0,30.10,NE,52,2.0,4.0,15,0.00,,,0.00,Wunderground v.1.13,2013-02-15 01:17:00,
2013-02-14 17:23:00,65.5,16.6,30.10,ENE,72,2.0,5.0,15,0.00,,,0.00,Wunderground v.1.13,2013-02-15 01:23:00,
2013-02-14 17:28:00,64.8,16.0,30.10,NE,45,2.0,5.0,15,0.00,,,0.00,Wunderground v.1.13,2013-02-15 01:28:00,
2013-02-14 17:34:00,64.3,17.1,30.10,ENE,68,1.0,3.0,16,0.00,,,0.00,Wunderground v.1.13,2013-02-15 01:34:00,
2013-02-14 17:40:00,63.9,16.8,30.10,ENE,72,1.0,3.0,16,0.00,,,0.00,Wunderground v.1.13,2013-02-15 01:40:00,
2013-02-14 17:46:00,63.2,17.6,30.11,ENE,62,0.0,1.0,17,0.00,,,0.00,Wunderground v.1.13,2013-02-15 01:46:00,
2013-02-14 17:52:00,62.7,17.2,30.11,NE,51,0.0,1.0,17,0.00,,,0.00,Wunderground v.1.13,2013-02-15 01:52:00,
2013-02-14 17:58:00,62.3,16.9,30.11,East,80,1.0,1.0,17,0.00,,,0.00,Wunderground v.1.13,2013-02-15 01:58:00,
2013-02-14 18:04:00,61.6,17.6,30.11,East,80,0.0,1.0,18,0.00,,,0.00,Wunderground v.1.13,2013-02-15 02:04:00,
2013-02-14 18:09:00,61.2,17.3,30.11,East,79,0.0,1.0,18,0.00,,,0.00,Wunderground v.1.13,2013-02-15 02:09:00,
2013-02-14 18:15:00,60.7,18.1,30.13,East,79,0.0,2.0,19,0.00,,,0.00,Wunderground v.1.13,2013-02-15 02:15:00,
2013-02-14 18:21:00,60.2,17.7,30.13,ENE,75,0.0,2.0,19,0.00,,,0.00,Wunderground v.1.13,2013-02-15 02:21:00,
2013-02-14 18:26:00,59.8,17.4,30.13,NNE,31,0.0,3.0,19,0.00,,,0.00,Wunderground v.1.13,2013-02-15 02:26:00,
2013-02-14 18:32:00,59.3,18.2,30.14,NNE,28,1.0,1.0,20,0.00,,,0.00,Wunderground v.1.13,2013-02-15 02:32:00,
2013-02-14 18:38:00,59.0,17.9,30.14,NE,37,1.0,3.0,20,0.00,,,0.00,Wunderground v.1.13,2013-02-15 02:38:00,
2013-02-14 18:44:00,58.6,17.6,30.14,NE,37,1.0,2.0,20,0.00,,,0.00,Wunderground v.1.13,2013-02-15 02:44:00,
2013-02-14 18:50:00,58.1,18.3,30.14,NE,37,1.0,1.0,21,0.00,,,0.00,Wunderground v.1.13,2013-02-15 02:50:00,
2013-02-14 18:56:00,57.6,17.9,30.14,NE,35,0.0,1.0,21,0.00,,,0.00,Wunderground v.1.13,2013-02-15 02:56:00,
2013-02-14 19:02:00,57.2,18.6,30.16,NE,35,0.0,3.0,22,0.00,,,0.00,Wunderground v.1.13,2013-02-15 03:02:00,
2013-02-14 19:07:00,56.9,18.4,30.16,NE,35,0.0,1.0,22,0.00,,,0.00,Wunderground v.1.13,2013-02-15 03:07:00,
2013-02-14 19:13:00,56.5,18.1,30.16,NE,35,0.0,0.0,22,0.00,,,0.00,Wunderground v.1.13,2013-02-15 03:13:00,
2013-02-14 19:19:00,56.0,17.6,30.15,NE,35,0.0,0.0,22,0.00,,,0.00,Wunderground v.1.13,2013-02-15 03:19:00,
2013-02-14 19:25:00,55.6,18.3,30.15,NNE,30,0.0,1.0,23,0.00,,,0.00,Wunderground v.1.13,2013-02-15 03:25:00,
2013-02-14 19:31:00,55.4,18.2,30.16,NNE,27,1.0,1.0,23,0.00,,,0.00,Wunderground v.1.13,2013-02-15 03:31:00,
2013-02-14 19:36:00,55.1,17.9,30.16,NNE,28,1.0,1.0,23,0.00,,,0.00,Wunderground v.1.13,2013-02-15 03:36:00,
2013-02-14 19:42:00,55.0,17.8,30.16,NNE,28,0.0,1.0,23,0.00,,,0.00,Wunderground v.1.13,2013-02-15 03:42:00,
2013-02-14 19:48:00,54.7,18.6,30.16,NNE,28,1.0,2.0,24,0.00,,,0.00,Wunderground v.1.13,2013-02-15 03:48:00,
2013-02-14 19:53:00,54.5,18.4,30.16,NNE,28,1.0,2.0,24,0.00,,,0.00,Wunderground v.1.13,2013-02-15 03:53:00,
2013-02-14 19:59:00,54.4,18.3,30.17,NNE,28,1.0,2.0,24,0.00,,,0.00,Wunderground v.1.13,2013-02-15 03:59:00,
2013-02-14 20:04:00,54.1,18.1,30.17,NNE,28,0.0,5.0,24,0.00,,,0.00,Wunderground v.1.13,2013-02-15 04:04:00,
2013-02-14 20:09:00,53.9,18.8,30.17,NNE,28,0.0,1.0,25,0.00,,,0.00,Wunderground v.1.13,2013-02-15 04:09:00,
2013-02-14 20:15:00,53.5,18.5,30.15,NNE,28,0.0,0.0,25,0.00,,,0.00,Wunderground v.1.13,2013-02-15 04:15:00,
2013-02-14 20:21:00,53.2,18.2,30.15,NNE,28,0.0,0.0,25,0.00,,,0.00,Wunderground v.1.13,2013-02-15 04:21:00,
2013-02-14 20:27:00,53.1,19.1,30.15,NNE,28,0.0,0.0,26,0.00,,,0.00,Wunderground v.1.13,2013-02-15 04:27:00,
2013-02-14 20:32:00,52.9,18.9,30.16,NNE,28,0.0,0.0,26,0.00,,,0.00,Wunderground v.1.13,2013-02-15 04:32:00,
2013-02-14 20:38:00,52.6,18.6,30.16,NNE,28,0.0,0.0,26,0.00,,,0.00,Wunderground v.1.13,2013-02-15 04:38:00,
2013-02-14 20:44:00,52.3,18.4,30.16,NNE,28,0.0,0.0,26,0.00,,,0.00,Wunderground v.1.13,2013-02-15 04:44:00,
2013-02-14 20:50:00,52.0,19.0,30.16,NNE,28,0.0,0.0,27,0.00,,,0.00,Wunderground v.1.13,2013-02-15 04:50:00,
2013-02-14 20:56:00,51.9,18.9,30.16,NNE,28,0.0,1.0,27,0.00,,,0.00,Wunderground v.1.13,2013-02-15 04:56:00,
2013-02-14 21:00:00,51.9,18.9,30.16,NNE,28,0.0,0.0,27,0.00,,,0.00,Wunderground v.1.13,2013-02-15 05:00:00,
2013-02-14 21:01:00,51.9,18.9,30.16,NNE,28,0.0,3.0,27,0.00,,,0.00,Wunderground v.1.13,2013-02-15 05:01:00,
2013-02-14 21:06:00,51.7,18.7,30.16,NNE,28,0.0,0.0,27,0.00,,,0.00,Wunderground v.1.13,2013-02-15 05:06:00,
2013-02-14 21:08:00,51.6,18.7,30.16,NNE,28,0.0,0.0,27,0.00,,,0.00,Wunderground v.1.13,2013-02-15 05:08:00,
2013-02-14 21:13:00,51.3,19.3,30.16,NNE,28,0.0,0.0,28,0.00,,,0.00,Wunderground v.1.13,2013-02-15 05:13:00,
2013-02-14 21:19:00,50.5,18.6,30.16,NNE,28,0.0,0.0,28,0.00,,,0.00,Wunderground v.1.13,2013-02-15 05:19:00,
2013-02-14 21:24:00,49.8,18.0,30.16,NNE,28,0.0,0.0,28,0.00,,,0.00,Wunderground v.1.13,2013-02-15 05:24:00,
2013-02-14 21:30:00,48.9,17.2,30.17,NNE,28,0.0,0.0,28,0.00,,,0.00,Wunderground v.1.13,2013-02-15 05:30:00,
2013-02-14 21:36:00,48.2,18.2,30.17,NNE,28,0.0,0.0,30,0.00,,,0.00,Wunderground v.1.13,2013-02-15 05:36:00,
2013-02-14 21:42:00,47.4,16.7,30.17,NNE,28,0.0,0.0,29,0.00,,,0.00,Wunderground v.1.13,2013-02-15 05:42:00,
2013-02-14 21:48:00,47.0,17.1,30.18,NNE,28,0.0,0.0,30,0.00,,,0.00,Wunderground v.1.13,2013-02-15 05:48:00,
2013-02-14 21:54:00,46.5,16.7,30.18,NNE,28,0.0,1.0,30,0.00,,,0.00,Wunderground v.1.13,2013-02-15 05:54:00,
2013-02-14 22:00:00,46.1,17.1,30.19,NNE,28,0.0,0.0,31,0.00,,,0.00,Wunderground v.1.13,2013-02-15 06:00:00,
2013-02-14 22:05:00,45.7,16.7,30.19,NNE,28,0.0,0.0,31,0.00,,,0.00,Wunderground v.1.13,2013-02-15 06:05:00,
2013-02-14 22:11:00,45.2,17.0,30.19,NNE,28,0.0,0.0,32,0.00,,,0.00,Wunderground v.1.13,2013-02-15 06:11:00,
2013-02-14 22:17:00,44.9,16.8,30.17,NNE,28,0.0,0.0,32,0.00,,,0.00,Wunderground v.1.13,2013-02-15 06:17:00,
2013-02-14 22:23:00,44.6,17.2,30.17,NNE,28,0.0,1.0,33,0.00,,,0.00,Wunderground v.1.13,2013-02-15 06:23:00,
2013-02-14 22:28:00,44.5,17.1,30.17,NNE,24,0.0,2.0,33,0.00,,,0.00,Wunderground v.1.13,2013-02-15 06:28:00,
2013-02-14 22:34:00,44.3,17.7,30.17,North,359,0.0,1.0,34,0.00,,,0.00,Wunderground v.1.13,2013-02-15 06:34:00,
2013-02-14 22:39:00,44.2,17.6,30.17,North,359,0.0,1.0,34,0.00,,,0.00,Wunderground v.1.13,2013-02-15 06:39:00,
2013-02-14 22:45:00,44.2,17.6,30.17,North,359,0.0,0.0,34,0.00,,,0.00,Wunderground v.1.13,2013-02-15 06:45:00,
2013-02-14 22:51:00,44.1,17.5,30.17,North,359,0.0,0.0,34,0.00,,,0.00,Wunderground v.1.13,2013-02-15 06:51:00,
2013-02-14 22:57:00,44.1,18.2,30.17,North,359,0.0,1.0,35,0.00,,,0.00,Wunderground v.1.13,2013-02-15 06:57:00,
2013-02-14 23:03:00,44.1,18.2,30.18,North,357,1.0,2.0,35,0.00,,,0.00,Wunderground v.1.13,2013-02-15 07:03:00,
2013-02-14 23:08:00,44.1,18.2,30.18,North,359,1.0,1.0,35,0.00,,,0.00,Wunderground v.1.13,2013-02-15 07:08:00,
2013-02-14 23:14:00,44.2,18.2,30.16,North,359,1.0,1.0,35,0.00,,,0.00,Wunderground v.1.13,2013-02-15 07:14:00,
2013-02-14 23:19:00,44.2,18.2,30.16,NNW,343,1.0,1.0,35,0.00,,,0.00,Wunderground v.1.13,2013-02-15 07:19:00,
2013-02-14 23:25:00,44.6,18.6,30.16,NNW,329,1.0,1.0,35,0.00,,,0.00,Wunderground v.1.13,2013-02-15 07:25:00,
2013-02-14 23:31:00,45.1,19.0,30.16,NNW,330,1.0,1.0,35,0.00,,,0.00,Wunderground v.1.13,2013-02-15 07:31:00,
2013-02-14 23:37:00,45.7,18.9,30.16,NNW,333,1.0,2.0,34,0.00,,,0.00,Wunderground v.1.13,2013-02-15 07:37:00,
2013-02-14 23:43:00,45.8,19.0,30.16,NNW,333,1.0,2.0,34,0.00,,,0.00,Wunderground v.1.13,2013-02-15 07:43:00,
2013-02-14 23:49:00,46.1,19.2,30.15,NNW,333,1.0,3.0,34,0.00,,,0.00,Wunderground v.1.13,2013-02-15 07:49:00,
2013-02-14 23:54:00,46.0,19.2,30.15,NNW,333,1.0,1.0,34,0.00,,,0.00,Wunderground v.1.13,2013-02-15 07:54:00,